Date String (YYYY-MM-DD hh:mm:ss) UTC,Instrument flags,Ambient pressure (hPa),Sample flow (lpm),Bypass flow (lpm),Sample temperature (°C),Ambient temperature (°C),ASC tube jacket temperature (°C),LED temperature (°C),Box temperature (°C),Sample RH (%),Span deviation,Mass concentration (μg/m³),Mass concentration (μg/m³),Mass concentration (μg/m³)
DateTimeUTC,F1_M11,P_M11,Q1_M11,Q2_M11,T1_M11,T2_M11,T3_M11,T4_M11,T5_M11,U1_M11,ZSPAN_M11,X0_M11,X2_M11,X1_M11
2022-05-27 00:00:00,,0825.7,5.00,0.00,29.5,28.7,00.0,38.3,31.5,13.7,0000.0,0013.50,0003.77,0002.76
2022-05-27 00:01:00,,0825.7,5.00,0.00,29.6,28.8,00.0,38.3,31.6,13.1,0000.0,0012.71,0003.77,0002.77
2022-05-27 00:02:00,,0825.7,5.00,0.00,29.6,28.1,00.0,38.3,31.4,13.4,0000.0,0012.32,0003.77,0002.76
2022-05-27 00:03:00,,0825.7,5.01,0.00,29.5,27.3,00.0,38.2,31.1,12.8,0000.0,0012.27,0003.75,0002.77
2022-05-27 00:04:00,,0825.7,4.99,0.00,29.4,27.1,00.0,38.2,31.0,13.9,0000.0,0012.14,0003.75,0002.78
2022-05-27 00:05:00,,0825.7,5.00,0.00,29.3,27.1,00.0,38.2,31.0,13.3,0000.0,0011.70,0003.75,0002.78
2022-05-27 00:06:00,,0825.7,5.01,0.00,29.3,27.3,00.0,38.2,31.0,13.7,0000.0,0011.74,0003.74,0002.78
2022-05-27 00:07:00,,0825.7,5.01,0.00,29.3,27.5,00.0,38.2,31.1,13.6,0000.0,0011.17,0003.75,0002.79
2022-05-27 00:08:00,,0825.7,4.99,0.00,29.3,27.7,00.0,38.2,31.2,13.1,0000.0,0010.55,0003.75,0002.80
2022-05-27 00:09:00,,0825.7,5.00,0.00,29.3,27.9,00.0,38.2,31.2,13.5,0000.0,0010.73,0003.76,0002.80
2022-05-27 00:10:00,,0825.7,5.01,0.00,29.4,28.1,00.0,38.2,31.3,13.4,0000.0,0010.43,0003.75,0002.79
2022-05-27 00:11:00,,0825.8,5.00,0.00,29.4,28.3,00.0,38.2,31.4,12.5,0000.0,0010.49,0003.74,0002.79
2022-05-27 00:12:00,,0825.8,4.99,0.00,29.5,28.4,00.0,38.2,31.4,12.8,0000.0,0010.68,0003.76,0002.78
2022-05-27 00:13:00,,0825.8,4.99,0.00,29.5,28.6,00.0,38.3,31.5,12.9,0000.0,0011.23,0003.77,0002.80
2022-05-27 00:14:00,,0825.7,5.01,0.00,29.5,28.7,00.0,38.3,31.6,12.2,0000.0,0011.24,0003.78,0002.81
2022-05-27 00:15:00,,0825.7,5.00,0.00,29.6,28.7,00.0,38.3,31.6,13.3,0000.0,0011.12,0003.75,0002.80
2022-05-27 00:16:00,,0825.7,5.01,0.00,29.6,27.9,00.0,38.2,31.3,13.4,0000.0,0012.03,0003.82,0002.82
2022-05-27 00:17:00,,0825.7,5.00,0.00,29.5,27.2,00.0,38.2,31.1,13.8,0000.0,0012.27,0003.88,0002.82
2022-05-27 00:18:00,,0825.7,5.00,0.00,29.4,27.0,00.0,38.2,31.1,12.7,0000.0,0011.95,0003.85,0002.80
2022-05-27 00:19:00,,0825.7,5.01,0.00,29.3,27.1,00.0,38.1,31.0,13.0,0000.0,0011.64,0003.85,0002.79
2022-05-27 00:20:00,,0825.7,5.00,0.00,29.3,27.3,00.0,38.1,31.1,12.5,0000.0,0010.12,0003.83,0002.80
2022-05-27 00:21:00,,0825.7,5.00,0.00,29.3,27.5,00.0,38.2,31.1,13.1,0000.0,0009.99,0003.83,0002.81
2022-05-27 00:22:00,,0825.7,5.00,0.00,29.3,27.7,00.0,38.2,31.2,13.0,0000.0,0010.36,0003.81,0002.80
2022-05-27 00:23:00,,0825.7,4.98,0.00,29.3,27.9,00.0,38.2,31.2,13.1,0000.0,0010.04,0003.77,0002.79
2022-05-27 00:24:00,,0825.7,4.99,0.00,29.4,28.1,00.0,38.2,31.3,12.6,0000.0,0009.46,0003.75,0002.78
2022-05-27 00:25:00,,0825.7,5.01,0.00,29.4,28.3,00.0,38.2,31.4,12.1,0000.0,0010.11,0003.76,0002.78
2022-05-27 00:26:00,,0825.7,5.00,0.00,29.5,28.4,00.0,38.2,31.4,12.3,0000.0,0011.39,0003.81,0002.79
2022-05-27 00:27:00,,0825.7,5.00,0.00,29.5,28.6,00.0,38.2,31.5,12.0,0000.0,0011.15,0003.80,0002.78
2022-05-27 00:28:00,,0825.7,4.99,0.00,29.5,28.7,00.0,38.3,31.6,12.0,0000.0,0011.16,0003.82,0002.79
2022-05-27 00:29:00,,0825.8,5.00,0.00,29.6,28.8,00.0,38.3,31.6,11.9,0000.0,0011.57,0003.81,0002.79
2022-05-27 00:30:00,,0825.7,5.01,0.00,29.6,28.4,00.0,38.3,31.5,12.1,0000.0,0011.61,0003.80,0002.78
2022-05-27 00:31:00,,0825.8,5.00,0.00,29.5,27.4,00.0,38.2,31.2,11.9,0000.0,0011.44,0003.76,0002.76
2022-05-27 00:32:00,,0825.7,5.00,0.00,29.4,27.1,00.0,38.2,31.1,12.5,0000.0,0011.19,0003.75,0002.73
2022-05-27 00:33:00,,0825.7,4.99,0.00,29.4,27.1,00.0,38.2,31.1,12.7,0000.0,0010.73,0003.76,0002.73
2022-05-27 00:34:00,,0825.7,5.02,0.00,29.3,27.2,00.0,38.2,31.1,12.4,0000.0,0010.71,0003.75,0002.71
2022-05-27 00:35:00,,0825.7,5.00,0.00,29.3,27.4,00.0,38.2,31.1,12.6,0000.0,0010.81,0003.74,0002.71
2022-05-27 00:36:00,,0825.7,5.00,0.00,29.3,27.7,00.0,38.2,31.2,12.5,0000.0,0010.72,0003.74,0002.70
2022-05-27 00:37:00,,0825.7,4.99,0.00,29.4,27.9,00.0,38.2,31.2,12.2,0000.0,0010.18,0003.73,0002.68
2022-05-27 00:38:00,,0825.7,5.00,0.00,29.4,28.1,00.0,38.2,31.3,12.4,0000.0,0009.22,0003.68,0002.67
2022-05-27 00:39:00,,0825.7,5.00,0.00,29.4,28.2,00.0,38.2,31.4,13.5,0000.0,0009.32,0003.61,0002.64
2022-05-27 00:40:00,,0825.7,5.00,0.00,29.5,28.4,00.0,38.2,31.4,14.6,0000.0,0009.39,0003.57,0002.63
2022-05-27 00:41:00,,0825.7,4.99,0.00,29.5,28.5,00.0,38.3,31.5,13.5,0000.0,0009.38,0003.60,0002.64
2022-05-27 00:42:00,,0825.8,4.99,0.00,29.6,28.7,00.0,38.3,31.6,12.9,0000.0,0009.42,0003.60,0002.64
2022-05-27 00:43:00,,0825.7,5.01,0.00,29.6,28.8,00.0,38.3,31.6,12.3,0000.0,0009.58,0003.59,0002.63
2022-05-27 00:44:00,,0825.7,5.01,0.00,29.6,28.3,00.0,38.3,31.4,12.0,0000.0,0010.57,0003.61,0002.64
2022-05-27 00:45:00,,0825.7,5.00,0.00,29.5,27.4,00.0,38.2,31.2,12.9,0000.0,0010.89,0003.62,0002.65
2022-05-27 00:46:00,,0825.8,4.99,0.00,29.4,27.1,00.0,38.2,31.1,14.0,0000.0,0011.09,0003.62,0002.66
2022-05-27 00:47:00,,0825.8,5.01,0.00,29.4,27.1,00.0,38.2,31.0,14.6,0000.0,0010.85,0003.60,0002.65
2022-05-27 00:48:00,,0825.8,5.01,0.00,29.3,27.3,00.0,38.2,31.1,14.6,0000.0,0010.44,0003.60,0002.65
2022-05-27 00:49:00,,0825.9,5.00,0.00,29.3,27.5,00.0,38.2,31.1,14.4,0000.0,0010.40,0003.62,0002.65
2022-05-27 00:50:00,,0825.9,4.99,0.00,29.3,27.7,00.0,38.2,31.2,14.4,0000.0,0010.25,0003.67,0002.66
2022-05-27 00:51:00,,0825.9,5.00,0.00,29.4,27.9,00.0,38.2,31.2,14.8,0000.0,0010.11,0003.70,0002.67
2022-05-27 00:52:00,,0825.9,5.00,0.00,29.4,28.1,00.0,38.2,31.3,14.7,0000.0,0009.50,0003.68,0002.68
2022-05-27 00:53:00,,0825.9,5.01,0.00,29.4,28.3,00.0,38.2,31.4,14.1,0000.0,0009.51,0003.71,0002.69
2022-05-27 00:54:00,,0825.9,5.00,0.00,29.5,28.4,00.0,38.2,31.4,12.7,0000.0,0009.35,0003.70,0002.68
2022-05-27 00:55:00,,0825.9,4.99,0.00,29.5,28.6,00.0,38.3,31.5,13.2,0000.0,0008.56,0003.69,0002.68
2022-05-27 00:56:00,,0825.8,5.00,0.00,29.6,28.7,00.0,38.3,31.6,13.2,0000.0,0008.93,0003.70,0002.69
2022-05-27 00:57:00,,0825.8,5.01,0.00,29.6,28.8,00.0,38.3,31.6,13.6,0000.0,0009.22,0003.75,0002.68
2022-05-27 00:58:00,,0825.8,5.00,0.00,29.6,28.1,00.0,38.3,31.4,13.7,0000.0,0010.71,0003.84,0002.71
2022-05-27 00:59:00,,0825.8,5.00,0.00,29.5,27.3,00.0,38.2,31.2,13.4,0000.0,0010.75,0003.85,0002.73
